Location: Croissy-Beaubourg
(48.8283°N, 2.6696°E)
Time: 04:42:37
(UTC+00:00)

ATLAS 5 CENTAUR R/B - Pass Details

Date: 16 October 2021
Orbit: 497 x 1159 km, 63.4° (Epoch: 25 November)

Event Time Altitude Azimuth Distance (km) Brightness Sun altitude
Rises 20:24:38 0° 254° (WSW) 2,650 5.4 -34.0°
Reaches altitude 10° 20:26:54 10° 266° (W) 1,817 4.5 -34.3°
Enters shadow 20:27:39 14° 273° (W) 1,573 4.2 -34.4°
